AKDT,Max TemperatureF,Mean TemperatureF,Min TemperatureF,Max Dew PointF,MeanDew PointF,Min DewpointF,Max Humidity, Mean Humidity, Min Humidity, Max Sea Level PressureIn, Mean Sea Level PressureIn, Min Sea Level PressureIn, Max VisibilityMiles, Mean VisibilityMiles, Min VisibilityMiles, Max Wind SpeedMPH, Mean Wind SpeedMPH, Max Gust SpeedMPH,PrecipitationIn, CloudCover, Events, WindDirDegrees
2013-5-1,35,30,24,23,20,11,85,70,35,29.88,29.76,29.67,10,6,1,16,11,,0.05,7,Snow,357
2013-5-2,37,30,22,21,16,10,75,58,43,29.93,29.87,29.75,10,9,2,10,6,,T,6,Snow,343
2013-5-3,38,33,27,29,25,19,88,77,54,29.96,29.90,29.83,10,5,2,12,8,,0.06,8,Snow,352
2013-5-4,36,28,20,22,20,17,88,69,46,30.00,29.95,29.91,10,10,6,10,4,,T,6,Snow,227
2013-5-5,41,32,22,19,13,9,78,46,22,30.15,30.11,30.02,10,10,10,15,4,20,0.00,3,,232
2013-5-6,43,30,16,17,13,9,74,46,19,30.22,30.17,30.14,10,10,10,12,3,22,0.00,5,,241
2013-5-7,45,33,21,20,17,15,75,48,21,30.28,30.25,30.22,10,10,10,12,3,18,0.00,3,,210
2013-5-8,50,36,22,22,18,16,75,46,17,30.35,30.29,30.25,10,10,10,10,3,,0.00,3,,293
2013-5-9,59,43,26,25,20,15,75,41,12,30.38,30.30,30.18,10,10,10,9,3,,0.00,3,,51
2013-5-10,57,45,33,27,23,17,73,39,13,30.22,30.11,29.95,10,10,10,8,2,,0.00,5,,181
2013-5-11,58,47,36,29,26,23,73,41,16,29.94,29.79,29.67,10,10,10,13,4,,0.00,6,,251
2013-5-12,52,45,37,29,27,24,73,50,24,29.67,29.57,29.48,10,10,10,15,4,18,0.00,6,,235
2013-5-13,37,30,22,19,7,1,56,36,17,29.70,29.64,29.54,10,10,10,16,10,21,0.00,4,,272
2013-5-14,42,34,26,16,13,10,58,41,20,29.69,29.66,29.63,10,10,10,13,4,17,0.00,3,,197
2013-5-15,50,42,33,22,18,15,75,43,17,29.71,29.66,29.61,10,10,10,15,3,21,0.00,4,,178
2013-5-16,52,41,29,27,23,20,72,46,22,29.68,29.56,29.41,10,10,10,15,5,22,0.00,6,,54
2013-5-17,43,35,27,31,28,21,85,73,51,29.68,29.50,29.39,10,6,2,15,7,,0.04,8,Snow,249
2013-5-18,35,30,24,21,8,4,81,43,18,30.21,29.96,29.70,10,9,2,16,10,24,T,7,Snow,261
2013-5-19,47,35,23,20,10,5,60,32,14,30.58,30.47,30.25,10,10,10,12,7,17,0.00,2,,266
2013-5-20,56,42,27,22,16,11,69,37,12,30.65,30.55,30.42,10,10,10,10,4,,0.00,4,,87
2013-5-21,64,47,29,26,18,12,69,32,8,30.46,30.33,30.13,10,10,10,9,4,,0.00,3,,62
2013-5-22,68,52,35,27,24,19,67,34,11,30.13,30.04,29.96,10,10,10,12,3,22,0.00,3,,210
2013-5-23,63,51,39,40,33,26,62,45,25,30.10,30.07,30.01,10,10,10,15,3,20,T,6,,240
2013-5-24,71,56,40,40,36,32,82,47,18,30.14,30.07,29.96,10,10,10,8,3,,0.00,5,,41
2013-5-25,77,61,44,34,29,23,65,30,9,29.98,29.90,29.81,10,10,10,9,4,,0.00,4,,356
2013-5-26,79,61,43,43,32,28,63,31,9,29.87,29.82,29.76,10,10,10,8,4,,0.00,2,,330
2013-5-27,82,67,51,43,38,35,62,34,12,29.87,29.80,29.73,10,10,10,9,4,,0.00,5,,39
2013-5-28,82,66,49,49,38,32,74,37,9,29.78,29.73,29.66,10,10,10,12,3,,0.00,4,,45
2013-5-29,83,69,54,42,33,26,51,26,6,29.69,29.67,29.63,10,10,10,15,4,,0.00,2,,27
2013-5-30,84,68,52,43,35,25,51,29,7,29.84,29.78,29.70,10,10,10,10,4,,0.00,2,,80
2013-5-31,83,68,52,45,38,23,67,35,9,29.95,29.92,29.85,10,10,10,15,5,21,0.00,4,,285